#timestamp,LO_Frequency,Hit,StdDev 
1698181215.4,286046998.7,N
1698181235.2,286046998.6,N
1698181255.1,286046998.4,N
1698181256.0,286046998.4,N
1698181275.8,286046998.9,N
1698181295.6,286046998.7,N
1698181315.5,286046998.3,N
1698181335.3,286047000.7,N
1698181355.1,286046998.5,N
1698181375.9,286046998.4,N
1698181395.7,286046998.4,N
1698181415.6,286047001.1,N
1698181435.4,286047000.9,N
1698181455.2,286046998.5,N
1698181475.1,286046998.3,N
1698181476.0,286046998.3,N
1698181495.8,286046999.3,N
1698181515.6,286046998.3,N
1698181535.5,286047000.8,N
1698181555.3,286046998.9,N
1698181575.2,286046998.8,N
1698181595.9,286046998.6,N
1698181615.7,286046998.6,N
1698181635.6,286046998.1,N
1698181655.4,286046998.7,N
1698181675.2,286046998.1,N
1698181695.1,286047001.2,N
1698181696.0,286047001.2,N
1698181715.8,286046998.8,N
1698181735.7,286046998.5,N
1698181755.5,286046998.9,N
1698181775.3,286046998.6,N
1698181795.2,286046998.5,N
1698181815.0,286046999.5,N
1698181815.9,286046999.5,N
1698181835.8,286046998.8,N
1698181855.6,286046998.3,N
1698181875.4,286046998.3,N
1698181895.3,286046998.5,N
1698181915.1,286046998.8,N
1698181935.8,286046998.3,N
1698181955.7,286046999.2,N
1698181975.5,286046999.0,N
1698181995.4,286046998.9,N
1698182015.2,286046999.2,N
1698182035.0,286046998.3,N
1698182035.9,286046998.3,N
1698182055.8,286046998.2,N
1698182075.6,286046998.6,N
1698182095.4,286047001.2,N
1698182115.3,286046999.0,N
1698182135.1,286046999.4,N
1698182155.9,286046998.7,N
1698182175.7,286046999.0,N
1698182195.5,286046999.4,N
1698182215.4,286046999.5,N
1698182235.2,286046999.2,N
1698182255.1,286046996.6,Y
1698182256.0,286046996.6,P
1698182275.8,286046999.1,N
1698182295.6,286046998.8,N
1698182315.5,286046999.4,N
1698182335.3,286046999.5,N
1698182355.1,286046999.1,N
1698182375.9,286046999.1,N
1698182395.7,286046998.2,N
1698182415.6,286046999.5,N
1698182435.4,286046999.5,N
1698182455.2,286046999.2,N
1698182475.1,286046998.8,N
1698182476.0,286046998.8,N
1698182495.8,286046998.9,N
1698182515.6,286046999.0,N
1698182535.5,286046996.5,Y
1698182555.3,286046998.1,P
1698182575.2,286046998.7,P
1698182595.9,286046998.6,P
1698182615.7,286046998.3,Y
1698182635.6,286047000.4,P
1698182655.4,286047000.1,N
1698182675.3,286046999.7,N
1698182695.1,286047002.2,Y
1698182696.0,286047002.2,P
1698182715.8,286047002.0,N
1698182735.7,286047001.8,N
1698182755.5,286047001.5,N
1698182775.3,286047002.3,N
1698182795.2,286047002.1,N
1698182815.0,286047002.6,Y
1698182815.9,286047002.6,P
1698182835.8,286047001.0,N
1698182855.6,286047000.0,N
1698182875.4,286047000.5,N
1698182895.3,286046999.8,N
1698182915.1,286047000.4,N
1698182935.9,286047002.8,Y
1698182955.7,286047000.4,P
1698182975.5,286046998.6,P
1698182995.4,286046998.5,N
1698183015.2,286047001.1,N
1698183035.0,286047001.1,N
1698183035.9,286047001.1,N
1698183055.8,286047001.0,N
1698183075.6,286046998.2,N
1698183095.5,286047001.1,N
1698183115.3,286046998.1,N
1698183135.1,286047000.1,N
1698183155.9,286047000.4,N
1698183175.7,286046999.8,N
1698183195.5,286047000.6,N
1698183215.4,286047000.2,N
1698183235.2,286047000.4,N
1698183255.1,286047000.4,N
1698183256.0,286047000.4,N
1698183275.8,286047000.4,N
1698183295.6,286047000.4,N
1698183315.5,286047000.0,N
1698183335.3,286047000.3,N
1698183355.1,286047000.2,N
1698183375.9,286047000.2,N
1698183395.7,286047002.7,Y
1698183415.6,286046999.8,P
1698183435.4,286047000.0,N
1698183455.2,286047002.2,P
1698183475.1,286047002.4,N
1698183476.0,286047002.4,N
1698183495.8,286047002.7,N
1698183515.6,286047002.6,N
1698183535.5,286046999.7,N
1698183555.3,286047002.3,N
1698183575.2,286047002.7,N
1698183595.9,286046999.7,N
1698183615.7,286047000.0,N
1698183635.6,286047000.0,N
1698183655.4,286047000.2,N
1698183675.3,286046999.7,N
1698183695.1,286046999.8,N
1698183696.0,286046999.8,N
1698183715.8,286047002.6,N
1698183735.7,286047002.5,N
1698183755.5,286047002.0,N
1698183775.3,286047001.6,N
1698183795.2,286047001.8,N
1698183815.0,286047001.6,N
1698183815.9,286047001.6,N
1698183835.8,286047001.7,N
1698183855.6,286047001.7,N
1698183875.4,286047001.7,N
1698183895.3,286047001.9,N
1698183915.1,286047001.5,N
1698183935.8,286047004.4,Y
1698183955.7,286046999.7,P
1698183975.5,286047002.3,N
1698183995.4,286047002.7,N
1698184015.2,286047002.6,N
1698184035.0,286046999.8,N
1698184035.9,286046999.8,N
1698184055.8,286047002.3,N
1698184075.6,286047002.1,N
1698184095.4,286047001.6,N
1698184115.3,286047001.6,N
1698184135.1,286047004.4,Y
1698184155.9,286047000.2,P
1698184175.7,286047000.3,N
1698184195.5,286047000.4,N
1698184215.4,286047000.5,N
1698184235.2,286047000.4,N
1698184255.1,286046999.7,N
1698184256.0,286046999.7,N
1698184275.8,286047000.2,N
1698184295.6,286047000.3,N
1698184315.5,286047000.2,N
1698184335.3,286047001.1,N
1698184355.1,286047000.3,N
1698184375.9,286047002.8,Y
1698184395.7,286047002.6,P
1698184415.6,286047000.3,N
1698184435.4,286047000.0,N
1698184455.2,286047000.3,N
1698184475.1,286047000.8,N
1698184476.0,286047000.8,N
1698184495.8,286047000.2,N
1698184515.7,286047002.8,Y
1698184535.5,286046999.7,P
1698184555.3,286047000.4,N
1698184575.2,286046999.8,N
1698184595.0,286046999.8,N
1698184595.9,286046999.8,N
1698184615.8,286047000.4,N
1698184635.6,286046999.7,N
1698184655.4,286047000.1,N
1698184675.3,286047000.3,N
1698184695.1,286047000.3,N
1698184715.9,286047002.8,Y
1698184735.7,286047000.1,P
1698184755.5,286046999.8,P
1698184775.4,286046999.8,N
1698184795.2,286047000.2,N
